Location: Mahannah Oil Field
(37.4664°N, 96.6003°W)
Time: 16:14:24
(UTC+00:00)

Vanguard 2 Rocket - Pass Details

Date: 22 June 2021
Orbit: 554 x 3325 km, 32.9° (Epoch: 24 July)

Event Time Altitude Azimuth Distance (km) Brightness Sun altitude
Rises 04:31:50 0° 273° (W) 7,245 11.9 -23.2°
Reaches altitude 10° 04:37:02 10° 272° (W) 6,061 11.4 -23.7°
Maximum altitude 04:54:50 68° 195° (SSW) 2,428 8.7 -25.2°
Enters shadow 05:01:14 32° 123° (ESE) 2,840 8.9 -25.7°
